AirNav   Phillips 66 Aviation Fuel
 
 313 users online  

Y83 Sandusky City Airport
Sandusky, Michigan, USA

GOING TO SANDUSKY?


FAA INFORMATION EFFECTIVE 06 DECEMBER 2018

Location

FAA Identifier: Y83
Lat/Long: 43-27-20.2882N / 082-50-30.4123W
43-27.338137N / 082-50.506872W
43.4556356 / -82.8417812
(estimated)
Elevation: 776.9 ft. / 236.8 m (surveyed)
Variation: 07W (1985)
From city: 3 miles N of SANDUSKY, MI
Time zone: UTC -5 (UTC -4 during Daylight Saving Time)
Zip code: 48471

Airport Operations

Airport use: Open to the public
Activation date: 12/1961
Control tower: no
ARTCC: CLEVELAND CENTER
FSS: LANSING FLIGHT SERVICE STATION
NOTAMs facility: LAN (NOTAM-D service available)
Attendance: MON-FRI 0900-1630
Wind indicator: lighted
Segmented circle: yes
Lights: ACTVT MIRL RY 09/27 - CTAF.
Beacon: white-green (lighted land airport)
Operates sunset to sunrise.

Airport Communications

CTAF/UNICOM: 122.8

Airport Services

Fuel available: 100LL
Parking: hangars and tiedowns
Airframe service: MAJOR
Powerplant service: MAJOR
Bottled oxygen: NONE
Bulk oxygen: NONE

Runway Information

Runway 9/27

Dimensions: 3499 x 75 ft. / 1066 x 23 m
Surface: asphalt, in fair condition
Weight bearing capacity: 
Single wheel: 16.0
Runway edge lights: medium intensity
RUNWAY 9  RUNWAY 27
Latitude: 43-27.416140N43-27.427003N
Longitude: 082-50.853413W082-50.062918W
Elevation: 776.3 ft.774.4 ft.
Gradient: 0.1%0.1%
Traffic pattern: leftleft
Runway heading: 096 magnetic, 089 true276 magnetic, 269 true
Markings: nonprecision, in good conditionnonprecision, in good condition
Visual slope indicator: 2-light PAPI on left (3.00 degrees glide path)2-light PAPI on left (3.00 degrees glide path)
Runway end identifier lights: yesno
Touchdown point: yes, no lightsyes, no lights
Obstructions: 32 ft. pline, 1333 ft. from runway, 35:1 slope to clear15 ft. road, 500 ft. from runway, 20:1 slope to clear

Runway 18/36

Dimensions: 2271 x 153 ft. / 692 x 47 m
Surface: turf, in good condition
Runway edge markings: 18/36 MKD WITH YELLOW CONES.
RUNWAY 18  RUNWAY 36
Latitude: 43-27.394298N43-27.020457N
Longitude: 082-50.582705W082-50.576540W
Elevation: 774.4 ft.772.8 ft.
Traffic pattern: leftleft
Runway heading: 187 magnetic, 180 true007 magnetic, 360 true
Displaced threshold: no374 ft.
Touchdown point: yes, no lightsyes, no lights
Obstructions: 13 ft. gnd, 339 ft. from runway, 70 ft. left of centerline, 26:1 slope to clear18 ft. road, 60 ft. from runway, 3:1 slope to clear
APCH RATIO 6:1 TO DSPLCD THLD, 63 FT TREE 380 FT DSNT 150 FT R.

Airport Ownership and Management from official FAA records

Ownership: Publicly-owned
Owner: CITY OF SANDUSKY
26 W. SPEAKER
SANDUSKY, MI 48471
Phone 810-648-4444
Manager: DON JOHNSTON
26 WEST SPEAKER STREET
SANDUSKY, MI 48471
Phone 810-414-3009

Airport Operational Statistics

Aircraft based on the field: 26
Single engine airplanes: 24
Multi engine airplanes: 1
Ultralights: 1
    
Aircraft operations: avg 119/week *
81% local general aviation
19% transient general aviation
* for 12-month period ending 31 December 2016

Additional Remarks

+3 FT EMBANKMENT 50 FT FM RY 36 THLD, -10 FT DITCH 100 FT EAST OF RY 18/36.
BIRDS & DEER ON AND INVOF ARPT.
FOR IFR CLEARANCE CTC CLEVELAND ARTCC (ZOB) 126.75/348.75 OR CALL ZOB 440-774-0386.
AFT HRS ACCESS TO TRML BLDG, ENTER 5-3-2-1-*.

Instrument Procedures

There are no published instrument procedures at Y83.

Some nearby airports with instrument procedures:

77G - Marlette Airport (14 nm SW)
KBAX - Huron County Memorial Airport (20 nm N)
KCFS - Tuscola Area Airport (26 nm W)
D95 - Dupont-Lapeer Airport (30 nm SW)
KPHN - St Clair County International Airport (35 nm SE)
 
Loc | Ops | Rwys | IFR | FBO | Links
Com | Nav | Svcs | Stats | Notes


 
Area around Y83 (Sandusky City Airport)
 
Road maps at: MapQuest Bing Google
 
Aerial photo
WARNING: Photo may not be current or correct
Aerial photo of Y83 (Sandusky City Airport)
Photo taken 16-Oct-2010
looking northeast.

Do you have a better or more recent aerial photo of Sandusky City Airport that you would like to share? If so, please send us your photo.

 
Sectional chart

 
Airport distance calculator
Flying to Sandusky City Airport? Find the distance to fly.

From to Y83

Sunrise and sunset
Times for 10-Dec-2018
 Local
(UTC-5)
 Zulu
(UTC)
Morning civil twilight07:2212:22
Sunrise07:5412:54
Sunset16:5421:54
Evening civil twilight17:2722:27

Current date and time
Zulu (UTC)  10-Dec-2018 10:09:20
Local (UTC-5)  10-Dec-2018 05:09:20
 
METAR
KBAX 
21nm N 
100957Z AUTO 25003KT 10SM OVC017 M03/M05 A3020 RMK AO2 T10261049
KCFS 
26nm W 
100955Z AUTO 32003KT 10SM OVC017 M03/M05 A3022 RMK AO2 T10261055
KD95 
30nm SW 
100956Z AUTO 00000KT 10SM OVC013 M03/M06 A3022 RMK AO2 T10321063
KP58 
34nm N 
100951Z AUTO 23005KT M02/M05 A3019 RMK AO1 SLP235 T10171050
KPHN 
35nm SE 
100955Z AUTO 29004KT 7SM OVC023 M04/M05 A3021 RMK AO2
CYZR 
36nm SE 
100900Z AUTO 29006KT 8SM OVC023 M02/M05 A3020 RMK SLP237
TAF
CYZR 
36nm SE 
091938Z 0920/1003 27008KT P6SM FEW020 RMK FCST BASED ON AUTO OBS. NXT FCST WILL BE ISSUED AT 100845Z
NOTAMs
Click for the latest NOTAMs
NOTAMs are issued by the DoD/FAA and will open in a separate window not controlled by AirNav.

 

 
 

FBO, Fuel Providers, and Aircraft Ground Support

  
 Business Name 
 
 Contact 
 
 Services / Description 
 
Fuel Prices
 
Comments
  
Sandusky Service 810-414-3009
no information available

If you are affiliated with Sandusky Service and would like to show here your services, contact info, web link, logo, and more, click here
100LL
SS $4.67 
 Updated 28-Nov-2018
 
   write
SS=Self service
Update Fuel Prices
 

Would you like to see your business listed on this page?

 If your business provides an interesting product or service to pilots, flight crews, aircraft, or users of the Sandusky City Airport, you should consider listing it here.  To start the listing process, click on the button below
 
Add a business
 

Other Pages about Sandusky City Airport

www.misandusky.com/...
Page from the Michigan Airport Directory (PDF)
 
Update a link
 
Copyright © AirNav, LLC. All rights reserved. Privacy Policy  Contact